Time,TemperatureF,DewpointF,PressureIn,WindDirection,WindDirectionDegrees,WindSpeedMPH,WindSpeedGustMPH,Humidity,HourlyPrecipIn,Conditions,Clouds,dailyrainin,SoftwareType,DateUTC
2013-01-11 00:00:00,25.2,22.9,30.51,SSE,158,0.0,-999.0,91,0.00,,,0.14,Wunderground v.1.15,2013-01-11 05:00:00,
2013-01-11 00:05:00,25.3,23.0,30.51,N/A,-737280,0.0,-999.0,91,0.00,,,0.14,Wunderground v.1.15,2013-01-11 05:05:00,
2013-01-11 00:10:00,25.3,23.0,30.50,SSE,158,0.0,-999.0,91,0.00,,,0.14,Wunderground v.1.15,2013-01-11 05:10:00,
2013-01-11 00:15:00,25.3,23.0,30.50,N/A,-737280,0.0,-999.0,91,0.00,,,0.14,Wunderground v.1.15,2013-01-11 05:15:00,
2013-01-11 00:20:00,25.3,23.0,30.51,SSE,158,0.0,-999.0,91,0.00,,,0.14,Wunderground v.1.15,2013-01-11 05:20:00,
2013-01-11 00:25:00,25.3,22.8,30.51,N/A,-737280,0.0,-999.0,90,0.00,,,0.14,Wunderground v.1.15,2013-01-11 05:25:00,
2013-01-11 00:30:00,25.2,22.7,30.51,N/A,-737280,0.0,-999.0,90,0.00,,,0.14,Wunderground v.1.15,2013-01-11 05:30:00,
2013-01-11 00:35:00,25.1,22.8,30.50,N/A,-737280,0.0,-999.0,91,0.00,,,0.14,Wunderground v.1.15,2013-01-11 05:35:00,
2013-01-11 00:40:00,25.2,22.9,30.50,SSE,158,0.0,-999.0,91,0.00,,,0.14,Wunderground v.1.15,2013-01-11 05:40:00,
2013-01-11 00:45:00,25.1,22.6,30.49,N/A,-737280,0.0,-999.0,90,0.00,,,0.14,Wunderground v.1.15,2013-01-11 05:45:00,
2013-01-11 00:50:00,25.4,23.1,30.49,SSE,158,0.0,-999.0,91,0.00,,,0.14,Wunderground v.1.15,2013-01-11 05:50:00,
2013-01-11 00:55:00,25.4,23.1,30.50,N/A,-737280,0.0,-999.0,91,0.00,,,0.14,Wunderground v.1.15,2013-01-11 05:55:00,
2013-01-11 01:00:00,25.4,23.1,30.50,N/A,-737280,0.0,-999.0,91,0.00,,,0.14,Wunderground v.1.15,2013-01-11 06:00:00,
2013-01-11 01:05:00,25.5,23.2,30.50,N/A,-737280,0.0,-999.0,91,0.00,,,0.14,Wunderground v.1.15,2013-01-11 06:05:00,
2013-01-11 01:10:00,25.7,23.4,30.49,N/A,-737280,0.0,-999.0,91,0.00,,,0.14,Wunderground v.1.15,2013-01-11 06:10:00,
2013-01-11 01:15:00,25.8,23.3,30.49,N/A,-737280,0.0,-999.0,90,0.00,,,0.14,Wunderground v.1.15,2013-01-11 06:15:00,
2013-01-11 01:20:00,25.7,23.2,30.49,N/A,-737280,0.0,-999.0,90,0.00,,,0.14,Wunderground v.1.15,2013-01-11 06:20:00,
2013-01-11 01:25:00,25.6,23.1,30.48,N/A,-737280,0.0,-999.0,90,0.00,,,0.14,Wunderground v.1.15,2013-01-11 06:25:00,
2013-01-11 01:30:00,25.4,22.9,30.48,N/A,-737280,0.0,-999.0,90,0.00,,,0.14,Wunderground v.1.15,2013-01-11 06:30:00,
2013-01-11 01:35:00,25.3,22.8,30.49,N/A,-737280,0.0,-999.0,90,0.00,,,0.14,Wunderground v.1.15,2013-01-11 06:35:00,
2013-01-11 01:40:00,25.2,22.7,30.49,N/A,-737280,0.0,-999.0,90,0.00,,,0.14,Wunderground v.1.15,2013-01-11 06:40:00,
2013-01-11 01:45:00,25.1,22.6,30.48,N/A,-737280,0.0,-999.0,90,0.00,,,0.14,Wunderground v.1.15,2013-01-11 06:45:00,
2013-01-11 01:50:00,25.0,22.5,30.48,N/A,-737280,0.0,-999.0,90,0.00,,,0.14,Wunderground v.1.15,2013-01-11 06:50:00,
2013-01-11 01:55:00,24.9,22.4,30.48,N/A,-737280,0.0,-999.0,90,0.00,,,0.14,Wunderground v.1.15,2013-01-11 06:55:00,
2013-01-11 02:00:00,24.8,22.3,30.48,West,270,0.0,-999.0,90,0.00,,,0.14,Wunderground v.1.15,2013-01-11 07:00:00,
2013-01-11 02:05:00,24.8,22.3,30.48,N/A,-737280,0.0,-999.0,90,0.00,,,0.14,Wunderground v.1.15,2013-01-11 07:05:00,
2013-01-11 02:10:00,24.8,22.3,30.47,West,270,0.0,-999.0,90,0.00,,,0.14,Wunderground v.1.15,2013-01-11 07:10:00,
2013-01-11 02:15:00,24.8,22.5,30.47,N/A,-737280,0.0,-999.0,91,0.00,,,0.14,Wunderground v.1.15,2013-01-11 07:15:00,
2013-01-11 02:20:00,24.7,22.4,30.47,N/A,-737280,0.0,-999.0,91,0.00,,,0.14,Wunderground v.1.15,2013-01-11 07:20:00,
2013-01-11 02:25:00,24.6,22.3,30.46,N/A,-737280,0.0,-999.0,91,0.00,,,0.14,Wunderground v.1.15,2013-01-11 07:25:00,
2013-01-11 02:30:00,24.5,22.2,30.47,N/A,-737280,0.0,-999.0,91,0.00,,,0.14,Wunderground v.1.15,2013-01-11 07:30:00,
2013-01-11 02:35:00,24.5,22.2,30.47,N/A,-737280,0.0,-999.0,91,0.00,,,0.14,Wunderground v.1.15,2013-01-11 07:35:00,
2013-01-11 02:40:00,24.4,22.2,30.48,N/A,-737280,0.0,-999.0,91,0.00,,,0.14,Wunderground v.1.15,2013-01-11 07:40:00,
2013-01-11 02:45:00,24.4,22.2,30.47,N/A,-737280,0.0,-999.0,91,0.00,,,0.14,Wunderground v.1.15,2013-01-11 07:45:00,
2013-01-11 02:50:00,24.4,22.4,30.47,N/A,-737280,0.0,-999.0,92,0.00,,,0.14,Wunderground v.1.15,2013-01-11 07:50:00,
2013-01-11 02:55:00,24.4,22.4,30.46,West,267,0.0,0.0,92,0.00,,,0.00,Wunderground v.1.15,2013-01-11 07:55:00,
2013-01-11 03:00:00,24.3,22.3,30.46,West,270,0.0,-999.0,92,0.00,,,0.14,Wunderground v.1.15,2013-01-11 08:00:00,
2013-01-11 03:05:00,24.3,22.3,30.46,N/A,-737280,0.0,-999.0,92,0.00,,,0.14,Wunderground v.1.15,2013-01-11 08:05:00,
2013-01-11 03:10:00,24.2,22.2,30.46,West,270,0.0,-999.0,92,0.00,,,0.14,Wunderground v.1.15,2013-01-11 08:10:00,
2013-01-11 03:15:00,24.1,22.1,30.46,N/A,-737280,0.0,-999.0,92,0.00,,,0.14,Wunderground v.1.15,2013-01-11 08:15:00,
2013-01-11 03:20:00,24.0,21.8,30.46,N/A,-737280,0.0,-999.0,91,0.00,,,0.14,Wunderground v.1.15,2013-01-11 08:20:00,
2013-01-11 03:25:00,23.7,21.5,30.45,N/A,-737280,0.0,-999.0,91,0.00,,,0.14,Wunderground v.1.15,2013-01-11 08:25:00,
2013-01-11 03:30:00,23.6,21.6,30.45,N/A,-737280,0.0,-999.0,92,0.00,,,0.14,Wunderground v.1.15,2013-01-11 08:30:00,
2013-01-11 03:35:00,23.4,21.4,30.45,N/A,-737280,0.0,-999.0,92,0.00,,,0.14,Wunderground v.1.15,2013-01-11 08:35:00,
2013-01-11 03:40:00,23.3,21.3,30.44,N/A,-737280,0.0,-999.0,92,0.00,,,0.14,Wunderground v.1.15,2013-01-11 08:40:00,
2013-01-11 03:45:00,23.1,21.1,30.44,N/A,-737280,0.0,-999.0,92,0.00,,,0.14,Wunderground v.1.15,2013-01-11 08:45:00,
2013-01-11 03:50:00,23.0,21.0,30.45,N/A,-737280,0.0,-999.0,92,0.00,,,0.14,Wunderground v.1.15,2013-01-11 08:50:00,
2013-01-11 03:55:00,23.0,21.0,30.45,N/A,-737280,0.0,-999.0,92,0.00,,,0.14,Wunderground v.1.15,2013-01-11 08:55:00,
2013-01-11 04:00:00,22.9,20.9,30.44,West,270,0.0,-999.0,92,0.00,,,0.14,Wunderground v.1.15,2013-01-11 09:00:00,
2013-01-11 04:05:00,22.8,20.8,30.44,N/A,-737280,0.0,-999.0,92,0.00,,,0.14,Wunderground v.1.15,2013-01-11 09:05:00,
2013-01-11 04:10:00,22.8,20.8,30.44,N/A,-737280,0.0,-999.0,92,0.00,,,0.14,Wunderground v.1.15,2013-01-11 09:10:00,
2013-01-11 04:15:00,22.7,20.7,30.43,West,270,0.0,-999.0,92,0.00,,,0.14,Wunderground v.1.15,2013-01-11 09:15:00,
2013-01-11 04:20:00,22.7,20.7,30.43,N/A,-737280,0.0,-999.0,92,0.00,,,0.14,Wunderground v.1.15,2013-01-11 09:20:00,
2013-01-11 04:25:00,22.6,20.6,30.43,N/A,-737280,0.0,-999.0,92,0.00,,,0.14,Wunderground v.1.15,2013-01-11 09:25:00,
2013-01-11 04:30:00,22.6,20.9,30.43,West,270,0.0,-999.0,93,0.00,,,0.14,Wunderground v.1.15,2013-01-11 09:30:00,
2013-01-11 04:35:00,22.6,20.6,30.42,N/A,-737280,0.0,-999.0,92,0.00,,,0.14,Wunderground v.1.15,2013-01-11 09:35:00,
2013-01-11 04:40:00,22.5,20.5,30.42,N/A,-737280,0.0,-999.0,92,0.00,,,0.14,Wunderground v.1.15,2013-01-11 09:40:00,
2013-01-11 04:45:00,22.5,20.5,30.42,N/A,-737280,0.0,-999.0,92,0.00,,,0.14,Wunderground v.1.15,2013-01-11 09:45:00,
2013-01-11 04:50:00,22.4,20.4,30.42,N/A,-737280,0.0,-999.0,92,0.00,,,0.14,Wunderground v.1.15,2013-01-11 09:50:00,
2013-01-11 04:55:00,22.5,20.8,30.42,West,270,0.0,-999.0,93,0.00,,,0.14,Wunderground v.1.15,2013-01-11 09:55:00,
2013-01-11 05:00:00,22.4,20.7,30.42,N/A,-737280,0.0,-999.0,93,0.00,,,0.14,Wunderground v.1.15,2013-01-11 10:00:00,
2013-01-11 05:05:00,22.3,20.3,30.41,N/A,-737280,0.0,-999.0,92,0.00,,,0.14,Wunderground v.1.15,2013-01-11 10:05:00,
2013-01-11 05:10:00,22.2,20.2,30.41,N/A,-737280,0.0,-999.0,92,0.00,,,0.14,Wunderground v.1.15,2013-01-11 10:10:00,
2013-01-11 05:15:00,22.2,20.5,30.42,N/A,-737280,0.0,-999.0,93,0.00,,,0.14,Wunderground v.1.15,2013-01-11 10:15:00,
2013-01-11 05:20:00,22.2,20.5,30.41,West,270,0.0,-999.0,93,0.00,,,0.14,Wunderground v.1.15,2013-01-11 10:20:00,
2013-01-11 05:25:00,22.2,20.5,30.42,N/A,-737280,0.0,-999.0,93,0.00,,,0.14,Wunderground v.1.15,2013-01-11 10:25:00,
2013-01-11 05:30:00,22.1,20.4,30.41,West,270,1.0,-999.0,93,0.00,,,0.14,Wunderground v.1.15,2013-01-11 10:30:00,
2013-01-11 05:35:00,22.2,20.5,30.42,N/A,-737280,0.0,-999.0,93,0.00,,,0.14,Wunderground v.1.15,2013-01-11 10:35:00,
2013-01-11 05:40:00,22.3,20.6,30.41,N/A,-737280,0.0,-999.0,93,0.00,,,0.14,Wunderground v.1.15,2013-01-11 10:40:00,
2013-01-11 05:45:00,22.2,20.5,30.41,N/A,-737280,0.0,-999.0,93,0.00,,,0.14,Wunderground v.1.15,2013-01-11 10:45:00,
2013-01-11 05:50:00,22.3,20.6,30.42,N/A,-737280,0.0,-999.0,93,0.00,,,0.14,Wunderground v.1.15,2013-01-11 10:50:00,
2013-01-11 05:55:00,22.4,20.7,30.41,N/A,-737280,0.0,-999.0,93,0.00,,,0.14,Wunderground v.1.15,2013-01-11 10:55:00,
2013-01-11 06:00:00,22.4,20.7,30.41,N/A,-737280,0.0,-999.0,93,0.00,,,0.14,Wunderground v.1.15,2013-01-11 11:00:00,
2013-01-11 06:05:00,22.5,20.8,30.41,N/A,-737280,0.0,-999.0,93,0.00,,,0.14,Wunderground v.1.15,2013-01-11 11:05:00,
2013-01-11 06:10:00,22.5,20.8,30.41,West,270,0.0,-999.0,93,0.00,,,0.14,Wunderground v.1.15,2013-01-11 11:10:00,
2013-01-11 06:15:00,22.7,21.0,30.41,N/A,-737280,0.0,-999.0,93,0.00,,,0.14,Wunderground v.1.15,2013-01-11 11:15:00,
2013-01-11 06:20:00,22.9,21.2,30.41,N/A,-737280,0.0,-999.0,93,0.00,,,0.14,Wunderground v.1.15,2013-01-11 11:20:00,
2013-01-11 06:25:00,23.0,21.3,30.41,N/A,-737280,0.0,-999.0,93,0.00,,,0.14,Wunderground v.1.15,2013-01-11 11:25:00,
2013-01-11 06:30:00,23.3,21.6,30.41,SW,225,0.0,-999.0,93,0.00,,,0.14,Wunderground v.1.15,2013-01-11 11:30:00,
2013-01-11 06:35:00,23.5,21.8,30.42,N/A,-737280,0.0,-999.0,93,0.00,,,0.14,Wunderground v.1.15,2013-01-11 11:35:00,
2013-01-11 06:40:00,23.7,22.0,30.41,N/A,-737280,0.0,-999.0,93,0.00,,,0.14,Wunderground v.1.15,2013-01-11 11:40:00,
2013-01-11 06:45:00,23.9,22.2,30.41,N/A,-737280,0.0,-999.0,93,0.00,,,0.14,Wunderground v.1.15,2013-01-11 11:45:00,
2013-01-11 06:50:00,24.0,22.3,30.42,N/A,-737280,0.0,-999.0,93,0.00,,,0.14,Wunderground v.1.15,2013-01-11 11:50:00,
2013-01-11 06:55:00,24.1,22.4,30.42,N/A,-737280,0.0,-999.0,93,0.00,,,0.14,Wunderground v.1.15,2013-01-11 11:55:00,
2013-01-11 07:00:00,24.2,22.5,30.42,SSW,203,0.0,-999.0,93,0.00,,,0.14,Wunderground v.1.15,2013-01-11 12:00:00,
2013-01-11 07:05:00,24.4,22.7,30.42,N/A,-737280,0.0,-999.0,93,0.00,,,0.14,Wunderground v.1.15,2013-01-11 12:05:00,
2013-01-11 07:10:00,-999.9,-99.9,30.41,N/A,-737280,0.0,-999.0,93,0.00,,,0.14,Wunderground v.1.15,2013-01-11 12:10:00,
2013-01-11 07:15:00,24.7,23.0,30.41,N/A,-737280,0.0,-999.0,93,0.00,,,0.14,Wunderground v.1.15,2013-01-11 12:15:00,
2013-01-11 07:20:00,24.8,23.1,30.42,SSE,158,0.0,-999.0,93,0.00,,,0.14,Wunderground v.1.15,2013-01-11 12:20:00,
2013-01-11 07:25:00,25.1,23.4,30.42,N/A,-737280,0.0,-999.0,93,0.00,,,0.14,Wunderground v.1.15,2013-01-11 12:25:00,
2013-01-11 07:30:00,25.4,23.7,30.42,N/A,-737280,0.0,-999.0,93,0.00,,,0.14,Wunderground v.1.15,2013-01-11 12:30:00,
2013-01-11 07:35:00,25.6,23.9,30.42,N/A,-737280,0.0,-999.0,93,0.00,,,0.14,Wunderground v.1.15,2013-01-11 12:35:00,
2013-01-11 07:40:00,25.8,24.1,30.42,SE,135,1.0,-999.0,93,0.00,,,0.14,Wunderground v.1.15,2013-01-11 12:40:00,
2013-01-11 07:45:00,26.0,24.3,30.42,SSE,158,2.0,-999.0,93,0.00,,,0.14,Wunderground v.1.15,2013-01-11 12:45:00,
2013-01-11 07:50:00,26.4,24.7,30.42,South,180,1.0,-999.0,93,0.00,,,0.14,Wunderground v.1.15,2013-01-11 12:50:00,
2013-01-11 07:55:00,26.8,25.0,30.43,SSE,158,0.0,-999.0,93,0.00,,,0.14,Wunderground v.1.15,2013-01-11 12:55:00,
2013-01-11 08:00:00,27.2,25.2,30.42,N/A,-737280,0.0,-999.0,92,0.00,,,0.14,Wunderground v.1.15,2013-01-11 13:00:00,
2013-01-11 08:05:00,27.6,25.3,30.42,SE,135,0.0,-999.0,91,0.00,,,0.14,Wunderground v.1.15,2013-01-11 13:05:00,
2013-01-11 08:10:00,27.9,25.3,30.42,SSE,158,3.0,-999.0,90,0.00,,,0.14,Wunderground v.1.15,2013-01-11 13:10:00,
2013-01-11 08:15:00,28.1,25.3,30.42,South,180,1.0,-999.0,89,0.00,,,0.14,Wunderground v.1.15,2013-01-11 13:15:00,
2013-01-11 08:20:00,28.3,25.2,30.42,SSE,158,2.0,-999.0,88,0.00,,,0.14,Wunderground v.1.15,2013-01-11 13:20:00,
2013-01-11 08:25:00,28.5,25.4,30.41,South,180,2.0,-999.0,88,0.00,,,0.14,Wunderground v.1.15,2013-01-11 13:25:00,
2013-01-11 08:30:00,28.7,25.3,30.42,South,180,2.0,-999.0,87,0.00,,,0.14,Wunderground v.1.15,2013-01-11 13:30:00,
2013-01-11 08:35:00,28.8,25.1,30.41,SSW,203,1.0,-999.0,86,0.00,,,0.14,Wunderground v.1.15,2013-01-11 13:35:00,
2013-01-11 08:40:00,28.9,25.2,30.40,N/A,-737280,0.0,-999.0,86,0.00,,,0.14,Wunderground v.1.15,2013-01-11 13:40:00,
2013-01-11 08:45:00,29.0,25.3,30.40,SSW,203,0.0,-999.0,86,0.00,,,0.14,Wunderground v.1.15,2013-01-11 13:45:00,
2013-01-11 08:50:00,29.2,25.3,30.40,N/A,-737280,0.0,-999.0,85,0.00,,,0.14,Wunderground v.1.15,2013-01-11 13:50:00,
2013-01-11 08:55:00,29.4,25.4,30.39,N/A,-737280,0.0,-999.0,85,0.00,,,0.14,Wunderground v.1.15,2013-01-11 13:55:00,
2013-01-11 09:00:00,29.5,25.5,30.40,N/A,-737280,0.0,-999.0,85,0.00,,,0.14,Wunderground v.1.15,2013-01-11 14:00:00,
2013-01-11 09:05:00,29.7,25.7,30.39,SSW,203,0.0,-999.0,85,0.00,,,0.14,Wunderground v.1.15,2013-01-11 14:05:00,
2013-01-11 09:10:00,29.9,25.9,30.39,N/A,-737280,0.0,-999.0,85,0.00,,,0.14,Wunderground v.1.15,2013-01-11 14:10:00,
2013-01-11 09:15:00,30.1,26.1,30.40,SSW,203,0.0,-999.0,85,0.00,,,0.14,Wunderground v.1.15,2013-01-11 14:15:00,
2013-01-11 09:20:00,30.2,26.2,30.41,SSW,203,4.0,-999.0,85,0.00,,,0.14,Wunderground v.1.15,2013-01-11 14:20:00,
2013-01-11 09:25:00,30.6,26.9,30.40,SSE,158,3.0,-999.0,86,0.00,,,0.14,Wunderground v.1.15,2013-01-11 14:25:00,
2013-01-11 09:30:00,30.9,26.9,30.40,SSE,158,2.0,-999.0,85,0.00,,,0.14,Wunderground v.1.15,2013-01-11 14:30:00,
2013-01-11 09:35:00,31.2,26.6,30.40,SE,135,1.0,-999.0,83,0.00,,,0.14,Wunderground v.1.15,2013-01-11 14:35:00,
2013-01-11 09:40:00,31.4,26.5,30.40,South,180,5.0,-999.0,82,0.00,,,0.14,Wunderground v.1.15,2013-01-11 14:40:00,
2013-01-11 09:45:00,31.6,26.4,30.40,South,180,4.0,-999.0,81,0.00,,,0.14,Wunderground v.1.15,2013-01-11 14:45:00,
2013-01-11 09:50:00,31.9,26.4,30.40,SSW,203,5.0,-999.0,80,0.00,,,0.14,Wunderground v.1.15,2013-01-11 14:50:00,
2013-01-11 09:55:00,32.1,26.6,30.40,South,180,3.0,-999.0,80,0.00,,,0.14,Wunderground v.1.15,2013-01-11 14:55:00,
2013-01-11 10:00:00,32.3,26.5,30.40,South,180,2.0,-999.0,79,0.00,,,0.14,Wunderground v.1.15,2013-01-11 15:00:00,
2013-01-11 10:05:00,32.6,27.1,30.40,SSE,158,3.0,-999.0,80,0.00,,,0.14,Wunderground v.1.15,2013-01-11 15:05:00,
2013-01-11 10:10:00,32.8,27.0,30.39,SSE,158,2.0,-999.0,79,0.00,,,0.14,Wunderground v.1.15,2013-01-11 15:10:00,
2013-01-11 10:15:00,33.0,26.9,30.39,SSE,158,2.0,-999.0,78,0.00,,,0.14,Wunderground v.1.15,2013-01-11 15:15:00,
2013-01-11 10:20:00,33.2,27.1,30.39,ESE,113,2.0,-999.0,78,0.00,,,0.14,Wunderground v.1.15,2013-01-11 15:20:00,
2013-01-11 10:25:00,33.3,27.2,30.39,SE,135,1.0,-999.0,78,0.00,,,0.14,Wunderground v.1.15,2013-01-11 15:25:00,
2013-01-11 10:30:00,33.3,27.2,30.39,ESE,113,3.0,-999.0,78,0.00,,,0.14,Wunderground v.1.15,2013-01-11 15:30:00,
2013-01-11 10:35:00,33.2,27.1,30.38,ESE,113,0.0,-999.0,78,0.00,,,0.14,Wunderground v.1.15,2013-01-11 15:35:00,
2013-01-11 10:40:00,33.2,27.1,30.38,ESE,113,0.0,-999.0,78,0.00,,,0.14,Wunderground v.1.15,2013-01-11 15:40:00,
2013-01-11 10:45:00,33.2,27.4,30.38,N/A,-737280,0.0,-999.0,79,0.00,,,0.14,Wunderground v.1.15,2013-01-11 15:45:00,
2013-01-11 10:50:00,33.2,27.4,30.38,SE,135,1.0,-999.0,79,0.00,,,0.14,Wunderground v.1.15,2013-01-11 15:50:00,
2013-01-11 10:55:00,33.4,27.6,30.37,SE,135,1.0,-999.0,79,0.00,,,0.14,Wunderground v.1.15,2013-01-11 15:55:00,
2013-01-11 11:00:00,33.6,27.8,30.36,SE,135,3.0,-999.0,79,0.00,,,0.14,Wunderground v.1.15,2013-01-11 16:00:00,
2013-01-11 11:05:00,33.7,27.3,30.35,SSE,158,2.0,-999.0,77,0.00,,,0.14,Wunderground v.1.15,2013-01-11 16:05:00,
2013-01-11 11:10:00,33.9,27.4,30.34,N/A,-737280,0.0,-999.0,77,0.00,,,0.14,Wunderground v.1.15,2013-01-11 16:10:00,
2013-01-11 11:15:00,34.0,27.5,30.34,SE,135,1.0,-999.0,77,0.00,,,0.14,Wunderground v.1.15,2013-01-11 16:15:00,
2013-01-11 11:17:00,34.1,27.6,30.33,ESE,113,2.0,-999.0,77,0.00,,,0.14,Wunderground v.1.15,2013-01-11 16:17:00,
2013-01-11 11:20:00,34.1,27.3,30.33,SE,135,3.0,-999.0,76,0.00,,,0.14,Wunderground v.1.15,2013-01-11 16:20:00,
2013-01-11 11:22:00,34.1,27.6,30.33,ESE,113,1.0,-999.0,77,0.00,,,0.14,Wunderground v.1.15,2013-01-11 16:22:00,
2013-01-11 11:27:00,34.2,27.4,30.32,SE,135,1.0,-999.0,76,0.00,,,0.14,Wunderground v.1.15,2013-01-11 16:27:00,
2013-01-11 11:32:00,34.2,27.1,30.33,SSE,158,4.0,-999.0,75,0.00,,,0.14,Wunderground v.1.15,2013-01-11 16:32:00,
2013-01-11 11:37:00,34.4,27.0,30.32,SSE,158,4.0,-999.0,74,0.00,,,0.14,Wunderground v.1.15,2013-01-11 16:37:00,
2013-01-11 11:42:00,34.4,27.0,30.33,South,180,8.0,-999.0,74,0.00,,,0.14,Wunderground v.1.15,2013-01-11 16:42:00,
2013-01-11 11:47:00,34.4,26.6,30.33,SSE,158,6.0,-999.0,73,0.00,,,0.14,Wunderground v.1.15,2013-01-11 16:47:00,
2013-01-11 11:52:00,34.7,26.6,30.32,SSE,158,7.0,-999.0,72,0.00,,,0.14,Wunderground v.1.15,2013-01-11 16:52:00,
2013-01-11 11:57:00,34.8,26.7,30.32,SE,135,4.0,-999.0,72,0.00,,,0.14,Wunderground v.1.15,2013-01-11 16:57:00,
2013-01-11 12:02:00,35.0,26.9,30.31,SE,135,3.0,-999.0,72,0.00,,,0.14,Wunderground v.1.15,2013-01-11 17:02:00,
2013-01-11 12:07:00,35.1,27.0,30.31,SSE,158,2.0,-999.0,72,0.00,,,0.14,Wunderground v.1.15,2013-01-11 17:07:00,
2013-01-11 12:12:00,35.2,27.1,30.31,SSE,158,4.0,-999.0,72,0.00,,,0.14,Wunderground v.1.15,2013-01-11 17:12:00,
2013-01-11 12:17:00,35.4,26.9,30.30,SSE,158,1.0,-999.0,71,0.00,,,0.14,Wunderground v.1.15,2013-01-11 17:17:00,
2013-01-11 12:22:00,35.6,27.1,30.30,SSE,158,2.0,-999.0,71,0.00,,,0.14,Wunderground v.1.15,2013-01-11 17:22:00,
2013-01-11 12:27:00,35.8,27.3,30.30,SSE,158,1.0,-999.0,71,0.00,,,0.14,Wunderground v.1.15,2013-01-11 17:27:00,
2013-01-11 12:32:00,36.0,27.8,30.29,SSE,158,1.0,-999.0,72,0.00,,,0.14,Wunderground v.1.15,2013-01-11 17:32:00,
2013-01-11 12:37:00,36.2,27.4,30.28,SSE,158,2.0,-999.0,70,0.00,,,0.14,Wunderground v.1.15,2013-01-11 17:37:00,
2013-01-11 12:42:00,36.2,27.0,30.28,SE,135,2.0,-999.0,69,0.00,,,0.14,Wunderground v.1.15,2013-01-11 17:42:00,
2013-01-11 12:47:00,36.3,27.1,30.28,SSE,158,2.0,-999.0,69,0.00,,,0.14,Wunderground v.1.15,2013-01-11 17:47:00,
2013-01-11 12:52:00,36.3,27.1,30.29,SSE,158,2.0,-999.0,69,0.00,,,0.14,Wunderground v.1.15,2013-01-11 17:52:00,
2013-01-11 12:57:00,36.3,27.1,30.28,South,180,3.0,-999.0,69,0.00,,,0.14,Wunderground v.1.15,2013-01-11 17:57:00,
2013-01-11 13:02:00,36.3,27.1,30.28,SSE,158,2.0,-999.0,69,0.00,,,0.14,Wunderground v.1.15,2013-01-11 18:02:00,
2013-01-11 13:07:00,36.4,27.2,30.28,South,180,3.0,-999.0,69,0.00,,,0.14,Wunderground v.1.15,2013-01-11 18:07:00,
2013-01-11 13:12:00,36.5,26.9,30.28,South,180,4.0,-999.0,68,0.00,,,0.14,Wunderground v.1.15,2013-01-11 18:12:00,
2013-01-11 13:17:00,36.6,27.0,30.28,SSE,158,5.0,-999.0,68,0.00,,,0.14,Wunderground v.1.15,2013-01-11 18:17:00,
2013-01-11 13:22:00,36.6,27.0,30.27,South,180,5.0,-999.0,68,0.00,,,0.14,Wunderground v.1.15,2013-01-11 18:22:00,
2013-01-11 13:27:00,36.7,26.8,30.27,South,180,5.0,-999.0,67,0.00,,,0.14,Wunderground v.1.15,2013-01-11 18:27:00,
2013-01-11 13:32:00,36.8,26.9,30.27,South,180,6.0,-999.0,67,0.00,,,0.14,Wunderground v.1.15,2013-01-11 18:32:00,
2013-01-11 13:37:00,36.9,27.0,30.27,South,180,4.0,-999.0,67,0.00,,,0.14,Wunderground v.1.15,2013-01-11 18:37:00,
2013-01-11 13:42:00,37.0,27.1,30.27,SSE,158,1.0,-999.0,67,0.00,,,0.14,Wunderground v.1.15,2013-01-11 18:42:00,
2013-01-11 13:47:00,37.2,28.7,30.27,South,180,2.0,-999.0,71,0.00,,,0.14,Wunderground v.1.15,2013-01-11 18:47:00,
2013-01-11 13:52:00,37.5,28.2,30.27,South,180,4.0,-999.0,69,0.00,,,0.14,Wunderground v.1.15,2013-01-11 18:52:00,
2013-01-11 13:57:00,37.7,27.7,30.27,SSE,158,1.0,-999.0,67,0.00,,,0.14,Wunderground v.1.15,2013-01-11 18:57:00,
2013-01-11 14:02:00,37.7,27.7,30.26,South,180,1.0,-999.0,67,0.00,,,0.14,Wunderground v.1.15,2013-01-11 19:02:00,
2013-01-11 14:07:00,37.7,28.1,30.26,South,180,2.0,-999.0,68,0.00,,,0.14,Wunderground v.1.15,2013-01-11 19:07:00,
2013-01-11 14:12:00,37.5,28.2,30.26,South,180,1.0,-999.0,69,0.00,,,0.14,Wunderground v.1.15,2013-01-11 19:12:00,
2013-01-11 14:17:00,37.2,30.0,30.26,South,180,3.0,-999.0,75,0.02,,,0.14,Wunderground v.1.15,2013-01-11 19:17:00,
2013-01-11 14:22:00,36.7,30.2,30.26,South,180,3.0,-999.0,77,0.02,,,0.14,Wunderground v.1.15,2013-01-11 19:22:00,
2013-01-11 14:27:00,36.1,30.2,30.26,SSW,203,3.0,-999.0,79,0.02,,,0.14,Wunderground v.1.15,2013-01-11 19:27:00,
2013-01-11 14:32:00,35.6,30.6,30.25,South,180,2.0,-999.0,82,0.03,,,0.14,Wunderground v.1.15,2013-01-11 19:32:00,
2013-01-11 14:37:00,35.2,30.3,30.25,South,180,3.0,-999.0,82,0.04,,,0.14,Wunderground v.1.15,2013-01-11 19:37:00,
2013-01-11 14:42:00,35.0,30.7,30.25,South,180,4.0,-999.0,84,0.04,,,0.14,Wunderground v.1.15,2013-01-11 19:42:00,
2013-01-11 14:47:00,35.0,31.2,30.25,SSE,158,1.0,-999.0,86,0.04,,,0.14,Wunderground v.1.15,2013-01-11 19:47:00,
2013-01-11 14:52:00,35.0,31.2,30.25,South,180,2.0,-999.0,86,0.04,,,0.14,Wunderground v.1.15,2013-01-11 19:52:00,
2013-01-11 14:57:00,35.0,31.5,30.24,SSE,158,0.0,-999.0,87,0.04,,,0.14,Wunderground v.1.15,2013-01-11 19:57:00,
2013-01-11 15:02:00,35.1,31.6,30.24,SSE,158,3.0,-999.0,87,0.04,,,0.14,Wunderground v.1.15,2013-01-11 20:02:00,
2013-01-11 15:07:00,35.1,31.6,30.24,SE,135,3.0,-999.0,87,0.04,,,0.14,Wunderground v.1.15,2013-01-11 20:07:00,
2013-01-11 15:12:00,35.1,31.3,30.24,SSE,158,3.0,-999.0,86,0.04,,,0.14,Wunderground v.1.15,2013-01-11 20:12:00,
2013-01-11 15:17:00,35.0,31.5,30.23,SSE,158,2.0,-999.0,87,0.02,,,0.14,Wunderground v.1.15,2013-01-11 20:17:00,
2013-01-11 15:22:00,34.9,31.4,30.24,South,180,2.0,-999.0,87,0.02,,,0.14,Wunderground v.1.15,2013-01-11 20:22:00,
2013-01-11 15:27:00,34.8,31.3,30.23,SSE,158,0.0,-999.0,87,0.02,,,0.14,Wunderground v.1.15,2013-01-11 20:27:00,
2013-01-11 15:32:00,34.7,31.2,30.23,SSE,158,2.0,-999.0,87,0.01,,,0.14,Wunderground v.1.15,2013-01-11 20:32:00,
2013-01-11 15:37:00,34.6,31.1,30.23,SSE,158,1.0,-999.0,87,0.00,,,0.14,Wunderground v.1.15,2013-01-11 20:37:00,
2013-01-11 15:42:00,34.6,31.1,30.23,SSE,158,1.0,-999.0,87,0.00,,,0.14,Wunderground v.1.15,2013-01-11 20:42:00,
2013-01-11 15:47:00,34.6,31.1,30.23,N/A,-737280,0.0,-999.0,87,0.00,,,0.14,Wunderground v.1.15,2013-01-11 20:47:00,
2013-01-11 15:52:00,34.5,31.3,30.22,SSE,158,1.0,-999.0,88,0.00,,,0.14,Wunderground v.1.15,2013-01-11 20:52:00,
2013-01-11 15:57:00,34.4,31.2,30.22,N/A,-737280,0.0,-999.0,88,0.00,,,0.14,Wunderground v.1.15,2013-01-11 20:57:00,
2013-01-11 16:02:00,34.4,31.2,30.22,N/A,-737280,0.0,-999.0,88,0.00,,,0.14,Wunderground v.1.15,2013-01-11 21:02:00,
2013-01-11 16:07:00,34.4,31.2,30.21,SSE,158,0.0,-999.0,88,0.00,,,0.14,Wunderground v.1.15,2013-01-11 21:07:00,
2013-01-11 16:12:00,34.4,31.5,30.21,N/A,-737280,0.0,-999.0,89,0.00,,,0.14,Wunderground v.1.15,2013-01-11 21:12:00,
2013-01-11 16:17:00,34.4,31.5,30.21,N/A,-737280,0.0,-999.0,89,0.00,,,0.14,Wunderground v.1.15,2013-01-11 21:17:00,
2013-01-11 16:22:00,34.4,31.5,30.21,N/A,-737280,0.0,-999.0,89,0.00,,,0.14,Wunderground v.1.15,2013-01-11 21:22:00,
2013-01-11 16:27:00,34.4,31.5,30.21,N/A,-737280,0.0,-999.0,89,0.00,,,0.14,Wunderground v.1.15,2013-01-11 21:27:00,
2013-01-11 16:32:00,34.4,31.8,30.21,N/A,-737280,0.0,-999.0,90,0.00,,,0.14,Wunderground v.1.15,2013-01-11 21:32:00,
2013-01-11 16:37:00,34.3,31.7,30.20,N/A,-737280,0.0,-999.0,90,0.00,,,0.14,Wunderground v.1.15,2013-01-11 21:37:00,
2013-01-11 16:42:00,34.2,31.8,30.20,N/A,-737280,0.0,-999.0,91,0.00,,,0.14,Wunderground v.1.15,2013-01-11 21:42:00,
2013-01-11 16:47:00,34.1,31.7,30.20,N/A,-737280,0.0,-999.0,91,0.00,,,0.14,Wunderground v.1.15,2013-01-11 21:47:00,
2013-01-11 16:52:00,34.0,31.6,30.20,N/A,-737280,0.0,-999.0,91,0.00,,,0.14,Wunderground v.1.15,2013-01-11 21:52:00,
2013-01-11 16:57:00,33.9,31.6,30.20,N/A,-737280,0.0,-999.0,91,0.00,,,0.14,Wunderground v.1.15,2013-01-11 21:57:00,
2013-01-11 17:02:00,33.9,31.6,30.19,N/A,-737280,0.0,-999.0,91,0.01,,,0.14,Wunderground v.1.15,2013-01-11 22:02:00,
2013-01-11 17:07:00,33.8,31.7,30.20,N/A,-737280,0.0,-999.0,92,0.01,,,0.14,Wunderground v.1.15,2013-01-11 22:07:00,
2013-01-11 17:12:00,33.8,31.7,30.19,N/A,-737280,0.0,-999.0,92,0.02,,,0.14,Wunderground v.1.15,2013-01-11 22:12:00,
2013-01-11 17:17:00,33.7,31.6,30.19,N/A,-737280,0.0,-999.0,92,0.02,,,0.14,Wunderground v.1.15,2013-01-11 22:17:00,
2013-01-11 17:22:00,33.7,31.6,30.19,N/A,-737280,0.0,-999.0,92,0.02,,,0.14,Wunderground v.1.15,2013-01-11 22:22:00,
2013-01-11 17:27:00,33.7,31.6,30.18,SSE,158,2.0,-999.0,92,0.02,,,0.14,Wunderground v.1.15,2013-01-11 22:27:00,
2013-01-11 17:32:00,33.9,32.1,30.18,SSE,158,1.0,-999.0,93,0.03,,,0.14,Wunderground v.1.15,2013-01-11 22:32:00,
2013-01-11 17:37:00,34.1,32.3,30.18,SSW,203,3.0,-999.0,93,0.03,,,0.14,Wunderground v.1.15,2013-01-11 22:37:00,
2013-01-11 17:42:00,34.2,32.4,30.17,SSW,203,3.0,-999.0,93,0.04,,,0.14,Wunderground v.1.15,2013-01-11 22:42:00,
2013-01-11 17:47:00,34.4,32.9,30.17,SSW,203,3.0,-999.0,94,0.04,,,0.14,Wunderground v.1.15,2013-01-11 22:47:00,
2013-01-11 17:52:00,34.4,32.6,30.17,SSW,203,0.0,-999.0,93,0.04,,,0.14,Wunderground v.1.15,2013-01-11 22:52:00,
2013-01-11 17:57:00,34.5,32.7,30.18,SSW,203,4.0,-999.0,93,0.04,,,0.14,Wunderground v.1.15,2013-01-11 22:57:00,
2013-01-11 18:02:00,34.6,32.8,30.17,SSW,203,3.0,-999.0,93,0.03,,,0.14,Wunderground v.1.15,2013-01-11 23:02:00,
2013-01-11 18:07:00,34.7,33.2,30.17,South,180,3.0,-999.0,94,0.04,,,0.14,Wunderground v.1.15,2013-01-11 23:07:00,
2013-01-11 18:12:00,34.7,32.9,30.17,SSW,203,0.0,-999.0,93,0.03,,,0.14,Wunderground v.1.15,2013-01-11 23:12:00,
2013-01-11 18:17:00,34.7,32.9,30.17,SSW,203,0.0,-999.0,93,0.03,,,0.14,Wunderground v.1.15,2013-01-11 23:17:00,
2013-01-11 18:22:00,34.6,32.8,30.16,SSW,203,3.0,-999.0,93,0.04,,,0.14,Wunderground v.1.15,2013-01-11 23:22:00,
2013-01-11 18:27:00,34.6,32.8,30.16,SSW,203,1.0,-999.0,93,0.04,,,0.14,Wunderground v.1.15,2013-01-11 23:27:00,
2013-01-11 18:32:00,34.4,32.6,30.17,South,180,2.0,-999.0,93,0.03,,,0.14,Wunderground v.1.15,2013-01-11 23:32:00,
2013-01-11 18:37:00,34.4,32.6,30.17,SSW,203,1.0,-999.0,93,0.03,,,0.14,Wunderground v.1.15,2013-01-11 23:37:00,
2013-01-11 18:42:00,34.4,32.9,30.17,SW,225,6.0,-999.0,94,0.02,,,0.14,Wunderground v.1.15,2013-01-11 23:42:00,
2013-01-11 18:47:00,34.5,33.0,30.17,SW,225,4.0,-999.0,94,0.02,,,0.14,Wunderground v.1.15,2013-01-11 23:47:00,
2013-01-11 18:52:00,34.7,33.2,30.16,SW,225,3.0,-999.0,94,0.02,,,0.14,Wunderground v.1.15,2013-01-11 23:52:00,
2013-01-11 18:57:00,34.8,33.2,30.16,SW,225,4.0,-999.0,94,0.02,,,0.14,Wunderground v.1.15,2013-01-11 23:57:00,
2013-01-11 19:02:00,35.0,33.4,30.16,SSW,203,2.0,-999.0,94,0.02,,,0.14,Wunderground v.1.15,2013-01-12 00:02:00,
2013-01-11 19:07:00,35.0,33.4,30.16,SSW,203,6.0,-999.0,94,0.01,,,0.14,Wunderground v.1.15,2013-01-12 00:07:00,
2013-01-11 19:12:00,35.2,33.6,30.16,SW,225,4.0,-999.0,94,0.01,,,0.14,Wunderground v.1.15,2013-01-12 00:12:00,
2013-01-11 19:17:00,35.3,33.7,30.16,SSW,203,5.0,-999.0,94,0.01,,,0.14,Wunderground v.1.15,2013-01-12 00:17:00,
2013-01-11 19:22:00,35.4,33.8,30.15,SSW,203,4.0,-999.0,94,0.00,,,0.14,Wunderground v.1.15,2013-01-12 00:22:00,
2013-01-11 19:27:00,35.5,33.9,30.15,SSW,203,3.0,-999.0,94,0.00,,,0.14,Wunderground v.1.15,2013-01-12 00:27:00,
2013-01-11 19:32:00,35.5,33.9,30.15,SSW,203,3.0,-999.0,94,0.00,,,0.14,Wunderground v.1.15,2013-01-12 00:32:00,
2013-01-11 19:37:00,35.4,33.8,30.15,SSW,203,3.0,-999.0,94,0.01,,,0.14,Wunderground v.1.15,2013-01-12 00:37:00,
2013-01-11 19:42:00,35.3,33.7,30.14,SSW,203,7.0,-999.0,94,0.02,,,0.14,Wunderground v.1.15,2013-01-12 00:42:00,
2013-01-11 19:47:00,35.3,33.7,30.14,SSW,203,1.0,-999.0,94,0.02,,,0.14,Wunderground v.1.15,2013-01-12 00:47:00,
2013-01-11 19:52:00,35.3,33.7,30.13,South,180,4.0,-999.0,94,0.02,,,0.14,Wunderground v.1.15,2013-01-12 00:52:00,
2013-01-11 19:57:00,35.3,33.7,30.13,SE,135,0.0,-999.0,94,0.03,,,0.14,Wunderground v.1.15,2013-01-12 00:57:00,
2013-01-11 20:02:00,35.5,34.2,30.13,SE,135,1.0,-999.0,95,0.03,,,0.14,Wunderground v.1.15,2013-01-12 01:02:00,
2013-01-11 20:07:00,35.6,34.3,30.12,SE,135,0.0,-999.0,95,0.03,,,0.14,Wunderground v.1.15,2013-01-12 01:07:00,
2013-01-11 20:12:00,35.6,34.3,30.12,N/A,-737280,0.0,-999.0,95,0.03,,,0.14,Wunderground v.1.15,2013-01-12 01:12:00,
2013-01-11 20:17:00,35.9,34.6,30.12,SE,135,2.0,-999.0,95,0.03,,,0.14,Wunderground v.1.15,2013-01-12 01:17:00,
2013-01-11 20:22:00,36.3,35.0,30.12,SSE,158,1.0,-999.0,95,0.03,,,0.14,Wunderground v.1.15,2013-01-12 01:22:00,
2013-01-11 20:27:00,36.4,35.1,30.13,SSW,203,2.0,-999.0,95,0.03,,,0.14,Wunderground v.1.15,2013-01-12 01:27:00,
2013-01-11 20:32:00,36.2,34.9,30.12,SSW,203,1.0,-999.0,95,0.03,,,0.14,Wunderground v.1.15,2013-01-12 01:32:00,
2013-01-11 20:37:00,36.0,34.7,30.12,SSW,203,2.0,-999.0,95,0.02,,,0.14,Wunderground v.1.15,2013-01-12 01:37:00,
2013-01-11 20:42:00,35.9,34.6,30.11,SSW,203,0.0,-999.0,95,0.01,,,0.14,Wunderground v.1.15,2013-01-12 01:42:00,
2013-01-11 20:47:00,36.1,34.8,30.12,South,180,0.0,-999.0,95,0.01,,,0.14,Wunderground v.1.15,2013-01-12 01:47:00,
2013-01-11 20:52:00,36.1,34.8,30.12,N/A,-737280,0.0,-999.0,95,0.01,,,0.14,Wunderground v.1.15,2013-01-12 01:52:00,
2013-01-11 20:57:00,35.9,34.6,30.11,N/A,-737280,0.0,-999.0,95,0.00,,,0.14,Wunderground v.1.15,2013-01-12 01:57:00,
2013-01-11 21:02:00,35.6,34.3,30.12,N/A,-737280,0.0,-999.0,95,0.00,,,0.14,Wunderground v.1.15,2013-01-12 02:02:00,
2013-01-11 21:07:00,35.4,34.1,30.11,South,180,2.0,-999.0,95,0.00,,,0.14,Wunderground v.1.15,2013-01-12 02:07:00,
2013-01-11 21:12:00,35.7,34.4,30.11,South,180,0.0,-999.0,95,0.00,,,0.14,Wunderground v.1.15,2013-01-12 02:12:00,
2013-01-11 21:17:00,36.0,35.0,30.11,N/A,-737280,0.0,-999.0,96,0.00,,,0.14,Wunderground v.1.15,2013-01-12 02:17:00,
2013-01-11 21:22:00,35.8,34.5,30.11,N/A,-737280,0.0,-999.0,95,0.00,,,0.14,Wunderground v.1.15,2013-01-12 02:22:00,
2013-01-11 21:27:00,35.2,33.9,30.11,N/A,-737280,0.0,-999.0,95,0.00,,,0.14,Wunderground v.1.15,2013-01-12 02:27:00,
2013-01-11 21:32:00,35.0,33.7,30.11,N/A,-737280,0.0,-999.0,95,0.00,,,0.14,Wunderground v.1.15,2013-01-12 02:32:00,
2013-01-11 21:37:00,34.9,33.6,30.11,N/A,-737280,0.0,-999.0,95,0.00,,,0.14,Wunderground v.1.15,2013-01-12 02:37:00,
2013-01-11 21:42:00,35.0,33.7,30.12,South,180,1.0,-999.0,95,0.00,,,0.14,Wunderground v.1.15,2013-01-12 02:42:00,
2013-01-11 21:47:00,35.0,33.7,30.12,South,180,1.0,-999.0,95,0.01,,,0.14,Wunderground v.1.15,2013-01-12 02:47:00,
2013-01-11 21:52:00,34.9,33.6,30.13,South,180,2.0,-999.0,95,0.01,,,0.14,Wunderground v.1.15,2013-01-12 02:52:00,
2013-01-11 21:57:00,34.9,33.6,30.12,N/A,-737280,0.0,-999.0,95,0.01,,,0.14,Wunderground v.1.15,2013-01-12 02:57:00,
2013-01-11 22:02:00,34.9,33.6,30.12,South,180,1.0,-999.0,95,0.01,,,0.14,Wunderground v.1.15,2013-01-12 03:02:00,
2013-01-11 22:07:00,34.8,33.5,30.12,N/A,-737280,0.0,-999.0,95,0.01,,,0.14,Wunderground v.1.15,2013-01-12 03:07:00,
2013-01-11 22:12:00,34.8,33.5,30.12,SE,135,1.0,-999.0,95,0.01,,,0.14,Wunderground v.1.15,2013-01-12 03:12:00,
2013-01-11 22:17:00,34.7,33.4,30.12,SE,135,0.0,-999.0,95,0.01,,,0.14,Wunderground v.1.15,2013-01-12 03:17:00,
2013-01-11 22:22:00,34.6,33.3,30.11,N/A,-737280,0.0,-999.0,95,0.01,,,0.14,Wunderground v.1.15,2013-01-12 03:22:00,
2013-01-11 22:27:00,34.6,33.3,30.11,N/A,-737280,0.0,-999.0,95,0.01,,,0.14,Wunderground v.1.15,2013-01-12 03:27:00,
2013-01-11 22:32:00,34.5,33.2,30.11,N/A,-737280,0.0,-999.0,95,0.01,,,0.14,Wunderground v.1.15,2013-01-12 03:32:00,
2013-01-11 22:37:00,34.4,33.1,30.12,N/A,-737280,0.0,-999.0,95,0.01,,,0.14,Wunderground v.1.15,2013-01-12 03:37:00,
2013-01-11 22:42:00,34.4,33.1,30.12,N/A,-737280,0.0,-999.0,95,0.01,,,0.14,Wunderground v.1.15,2013-01-12 03:42:00,
2013-01-11 22:47:00,34.4,33.1,30.11,N/A,-737280,0.0,-999.0,95,0.00,,,0.14,Wunderground v.1.15,2013-01-12 03:47:00,
2013-01-11 22:52:00,34.5,33.2,30.11,N/A,-737280,0.0,-999.0,95,0.00,,,0.14,Wunderground v.1.15,2013-01-12 03:52:00,
2013-01-11 22:57:00,34.6,33.3,30.11,N/A,-737280,0.0,-999.0,95,0.00,,,0.14,Wunderground v.1.15,2013-01-12 03:57:00,
2013-01-11 23:02:00,34.7,33.4,30.11,N/A,-737280,0.0,-999.0,95,0.00,,,0.14,Wunderground v.1.15,2013-01-12 04:02:00,
2013-01-11 23:07:00,34.6,33.3,30.11,ESE,113,0.0,-999.0,95,0.00,,,0.14,Wunderground v.1.15,2013-01-12 04:07:00,
2013-01-11 23:12:00,34.7,33.7,30.11,N/A,-737280,0.0,-999.0,96,0.00,,,0.14,Wunderground v.1.15,2013-01-12 04:12:00,
2013-01-11 23:17:00,34.8,33.8,30.11,N/A,-737280,0.0,-999.0,96,0.00,,,0.14,Wunderground v.1.15,2013-01-12 04:17:00,
2013-01-11 23:22:00,34.7,33.7,30.11,N/A,-737280,0.0,-999.0,96,0.00,,,0.14,Wunderground v.1.15,2013-01-12 04:22:00,
2013-01-11 23:27:00,34.7,33.4,30.10,N/A,-737280,0.0,-999.0,95,0.00,,,0.14,Wunderground v.1.15,2013-01-12 04:27:00,
2013-01-11 23:32:00,34.6,33.3,30.09,N/A,-737280,0.0,-999.0,95,0.00,,,0.14,Wunderground v.1.15,2013-01-12 04:32:00,
2013-01-11 23:37:00,34.5,33.2,30.09,N/A,-737280,0.0,-999.0,95,0.00,,,0.14,Wunderground v.1.15,2013-01-12 04:37:00,
2013-01-11 23:42:00,34.4,33.1,30.10,N/A,-737280,0.0,-999.0,95,0.00,,,0.14,Wunderground v.1.15,2013-01-12 04:42:00,
2013-01-11 23:47:00,34.4,33.1,30.09,ESE,113,0.0,-999.0,95,0.00,,,0.14,Wunderground v.1.15,2013-01-12 04:47:00,
2013-01-11 23:52:00,34.4,33.1,30.09,N/A,-737280,0.0,-999.0,95,0.00,,,0.14,Wunderground v.1.15,2013-01-12 04:52:00,
2013-01-11 23:57:00,34.4,33.1,30.09,ESE,113,0.0,-999.0,95,0.00,,,0.14,Wunderground v.1.15,2013-01-12 04:57:00,